Location: Newark
(45.2500°N, 7.5833°E)
Time: 04:56:45
(UTC+00:00)

A-11 Canister half - All Passes

Search period start: 26 January 2020 00:00
Search period end: 05 February 2020 00:00
Orbit: 1525 x 1684 km, 47.3° (Epoch: 25 January)

Date Brightness Start Highest point End Pass type
(mag) Time Alt. Az. Time Alt. Az. Time Alt. Az.
26 Jan - 00:36:13 10° W 00:43:40 25° SW 00:51:16 10° S night (unlit)
26 Jan - 13:58:11 10° SE 14:00:17 11° ESE 14:02:24 10° ESE daylight
26 Jan - 15:54:39 10° SSW 16:03:13 43° SE 16:11:58 10° ENE daylight
26 Jan - 17:58:15 10° WSW 18:07:38 88° SSE 18:17:20 10° ENE visible
26 Jan - 20:03:32 10° W 20:13:03 81° N 20:22:55 10° E visible
26 Jan - 22:08:41 10° WNW 22:18:12 68° SSW 22:28:02 10° SE visible
27 Jan - 00:14:28 10° W 00:22:06 27° SW 00:29:53 10° S night (unlit)
27 Jan - 15:33:10 10° SSW 15:41:39 42° SE 15:50:16 10° ENE daylight
27 Jan - 17:36:37 10° WSW 17:45:59 86° SSE 17:55:40 10° ENE visible
27 Jan - 19:41:53 10° W 19:51:24 80° N 20:01:13 10° E visible
27 Jan - 21:47:02 10° WNW 21:56:34 70° SSW 22:06:23 10° SE visible
27 Jan - 23:52:44 10° WNW 00:00:31 28° SW 00:08:29 10° S night (unlit)
28 Jan - 15:11:42 10° SSW 15:20:05 40° SE 15:28:35 10° ENE daylight
28 Jan - 17:15:01 10° WSW 17:24:21 85° SSE 17:33:59 10° ENE visible
28 Jan - 19:20:14 10° W 19:29:43 80° N 19:39:31 10° E visible
28 Jan - 21:25:25 10° WNW 21:34:55 72° SSW 21:44:45 10° SE visible
28 Jan - 23:31:01 10° WNW 23:38:56 30° SW 23:47:04 10° S visible
29 Jan - 14:50:15 10° SSW 14:58:30 38° SE 15:06:53 10° ENE daylight
29 Jan - 16:53:23 10° WSW 17:02:44 83° SSE 17:12:19 10° ENE visible
29 Jan - 18:58:36 10° W 19:08:03 79° N 19:17:50 10° E visible
29 Jan - 21:03:47 10° WNW 21:13:17 74° SSW 21:23:07 10° SE visible
29 Jan - 23:09:18 10° WNW 23:17:21 31° SW 23:25:37 10° S visible
30 Jan - 14:28:47 10° SSW 14:36:56 36° SE 14:45:11 10° ENE daylight
30 Jan - 16:31:47 10° WSW 16:41:05 81° SSE 16:50:39 10° ENE daylight
30 Jan - 18:36:57 10° W 18:46:24 79° N 18:56:08 10° E visible
30 Jan - 20:42:09 10° WNW 20:51:39 76° SSW 21:01:27 10° ESE visible
30 Jan - 22:47:35 10° WNW 22:55:46 33° SW 23:04:10 10° SSE visible
31 Jan - 14:07:21 10° SSW 14:15:23 34° SE 14:23:29 10° ENE daylight
31 Jan - 16:10:10 10° WSW 16:19:28 79° SSE 16:28:58 10° ENE daylight
31 Jan - 18:15:18 10° W 18:24:44 79° N 18:34:26 10° E visible
31 Jan - 20:20:31 10° WNW 20:30:00 78° SSW 20:39:48 10° ESE visible
31 Jan - 22:25:54 10° WNW 22:34:11 34° SW 22:42:42 10° SSE visible
01 Feb - 13:45:56 10° SSW 13:53:49 33° SE 14:01:46 10° ENE daylight
01 Feb - 15:48:34 10° WSW 15:57:50 77° SSE 16:07:19 10° ENE daylight
01 Feb - 17:53:40 10° W 18:03:04 79° N 18:12:45 10° E visible
01 Feb - 19:58:53 10° WNW 20:08:22 80° SSW 20:18:09 10° ESE visible
01 Feb - 22:04:13 10° WNW 22:12:36 36° SW 22:21:14 10° SSE visible
02 Feb - 13:24:31 10° S 13:32:16 31° SE 13:40:03 10° ENE daylight
02 Feb - 15:26:58 10° WSW 15:36:13 75° SSE 15:45:39 10° ENE daylight
02 Feb - 17:32:01 10° W 17:41:24 79° N 17:51:04 10° E visible
02 Feb - 19:37:15 10° WNW 19:46:43 82° SSW 19:56:29 10° ESE visible
02 Feb - 21:42:33 10° WNW 21:51:01 37° SW 21:59:44 10° SSE visible
03 Feb - 13:03:06 10° S 13:10:42 29° SE 13:18:20 10° ENE daylight
03 Feb - 15:05:22 10° SW 15:14:36 73° SSE 15:23:59 10° ENE daylight
03 Feb - 17:10:22 10° W 17:19:44 79° N 17:29:22 10° E visible
03 Feb - 19:15:38 10° WNW 19:25:05 83° SSW 19:34:50 10° ESE visible
03 Feb - 21:20:52 10° WNW 21:29:25 39° SW 21:38:14 10° SSE visible
04 Feb - 12:41:43 10° S 12:49:09 28° SE 12:56:36 10° ENE daylight
04 Feb - 14:43:47 10° SW 14:52:59 71° SSE 15:02:20 10° ENE daylight
04 Feb - 16:48:44 10° W 16:58:05 80° N 17:07:41 10° E daylight
04 Feb - 18:53:59 10° WNW 19:03:26 85° SSW 19:13:10 10° ESE visible
04 Feb - 20:59:12 10° WNW 21:07:50 41° SW 21:16:43 10° SSE visible
